Back to catalog

COSMOS 397 DEB

AliveLEO
NORAD 5272·DEBRIS·🇷🇺 Russia

Launched Feb 25, 1971 from Baikonur Cosmodrome

Loading…

Next Passes (next 24 hours)

TLE

FreshSource: Space-Track

Epoch: Sep 14, 2026, 13:08 UTC

1 05272U 71015BB  26257.54733906  .00000597  00000-0  22033-3 0  9993
2 05272  65.5532  88.2752 0740150 263.6635  87.9687 13.43888374658029

Track COSMOS 397 DEB in real time with AllMySat

Download on the App Store